This is the latest recevied weather packets stored in our database for station/object DG3RAP-11. If no packets are shown the sender has not sent any weather packets the latest 10 day(s).
| Time | Temp. | Humidity | Pressure | Rain* | Wind** | Luminosity | Snow |
|---|---|---|---|---|---|---|---|
| 1777928043 | 18.89° C | 49% | 1010.6 hPa | 0 mm | - | - | - |
| 1777927503 | 18.89° C | 49% | 1010.7 hPa | 0 mm | - | - | - |
| 1777926963 | 18.33° C | 50% | 1010.7 hPa | 0 mm | - | - | - |
| 1777926423 | 18.89° C | 50% | 1010.8 hPa | 0 mm | - | - | - |
| 1777925883 | 18.89° C | 49% | 1010.7 hPa | 0 mm | - | - | - |
| 1777925343 | 18.89° C | 50% | 1010.8 hPa | 0 mm | - | - | - |
| 1777924803 | 18.89° C | 49% | 1010.8 hPa | 0 mm | - | - | - |
| 1777924443 | 18.89° C | 49% | 1010.8 hPa | 0 mm | - | - | - |
| 1777923903 | 19.44° C | 49% | 1010.8 hPa | 0 mm | - | - | - |
| 1777923363 | 19.44° C | 48% | 1010.9 hPa | 0 mm | - | - | - |
| 1777922823 | 19.44° C | 48% | 1010.9 hPa | 0 mm | - | - | - |
| 1777922283 | 19.44° C | 47% | 1010.7 hPa | 0 mm | - | - | - |
| 1777921743 | 19.44° C | 47% | 1010.6 hPa | 0 mm | - | - | - |
| 1777921203 | 19.44° C | 45% | 1010.6 hPa | 0 mm | - | - | - |
| 1777920843 | 20° C | 44% | 1010.6 hPa | 0 mm | - | - | - |
| 1777920303 | 20° C | 44% | 1010.4 hPa | 0 mm | - | - | - |
| 1777919763 | 20.56° C | 41% | 1010.5 hPa | 0 mm | - | - | - |
| 1777919223 | 20.56° C | 41% | 1010.6 hPa | 0 mm | - | - | - |
| 1777918683 | 21.11° C | 41% | 1010.5 hPa | 0 mm | - | - | - |
| 1777918143 | 21.11° C | 40% | 1010.5 hPa | 0 mm | - | - | - |
| 1777917603 | 21.67° C | 40% | 1010.5 hPa | 0 mm | - | - | - |
| 1777917243 | 21.67° C | 39% | 1010.5 hPa | 0 mm | - | - | - |
| 1777916703 | 21.67° C | 39% | 1010.5 hPa | 0 mm | - | - | - |
| 1777916163 | 21.67° C | 39% | 1010.5 hPa | 0 mm | - | - | - |
| 1777915623 | 22.22° C | 39% | 1010.7 hPa | 0 mm | - | - | - |
* Rain latest hour (hover to see other rain measurements)
** Current wind speed in m/s (hover to see current wind gust speed)